(247344) = 2001 UZ220

Discovered at Socorro on 2001-10-21 by LINEAR.

Orbit

Orbit type: Main Belt

Note: WebGL enabled browser required.

epoch2022-01-21.0
epoch JD2459600.5
perihelion date2019-06-19.02615
perihelion JD2458653.52615
argument of perihelion (°)289.12566
ascending node (°)42.88904
inclination (°)11.99450
eccentricity0.1066506
perihelion distance (AU)2.4795352
Tisserand w.r.t. Jupiter3.3
ΔV w.r.t. Earth (km/sec)10.5
semimajor axis (AU)2.7755493
mean anomaly (°)201.84519
mean daily motion (°/day)0.21314760
aphelion distance (AU)3.072
period (years)4.62
P-vector [x]0.86902945
P-vector [y]-0.33855567
P-vector [z]-0.36078786
Q-vector [x]0.47411335
Q-vector [y]0.77830607
Q-vector [z]0.41165057
absolute magnitude15.76
phase slope0.15
uncertainty0
referenceMPO 696156
observations used458
oppositions14
arc length (days)7495
first opposition used2001
last opposition used2022
residual rms (arc-secs)0.77
perturbers coarse indicatorM-v
perturbers precise indicator003Ek
first observation date used2001-10-21.0
last observation date used2022-04-29.0
computer namePan
JD of orbit computation2456937.555853
perihelion JD uncertainty (days)1.1837E-04
argument of perihelion uncertainty (°)3.5939E-05
ascending node uncertainty (°)2.4196E-05
inclination uncertainty (°)6.1314E-06
eccentricity uncertainty 5.5541E-08
perihelion distance uncertainty (AU)1.6443E-07
Minimum Orbit Intersection Distances (in AU)
for orbit epoch: 2459600.5, reference: E2022-B04
Mercury2.06922
Venus1.76147
Earth1.50266
Mars1.13581
Jupiter2.29921
Saturn6.20648
Uranus15.3925
Neptune27.2413

Observations

468 total observations over interval: 2001 10 21.42006 – 2022 04 29.287115
These data are available for download (format description).

Date (UT) J2000 RA J2000 Dec Magn Location Ref
2001 10 21.42006 03 47 17.83 +21 34 26.4 19.2   704 – Lincoln Laboratory ETS, New Mexico MPS 61176
2001 10 21.43668 03 47 17.08 +21 34 28.5 19.2   704 – Lincoln Laboratory ETS, New Mexico MPS 61176
2001 10 21.45327 03 47 16.29 +21 34 30.8 19.4   704 – Lincoln Laboratory ETS, New Mexico MPS 61176
2001 10 21.48649 03 47 14.81 +21 34 35.6 19.0   704 – Lincoln Laboratory ETS, New Mexico MPS 61176
2001 10 26.49274 03 43 15.88 +21 45 50.1 20.0   644 – Palomar Mountain/NEAT MPS 61176
2001 10 26.50391 03 43 15.29 +21 45 51.4 19.3   644 – Palomar Mountain/NEAT MPS 61176
2001 10 26.51503 03 43 14.73 +21 45 52.7 19.8   644 – Palomar Mountain/NEAT MPS 61176
2001 11 12.29035 03 26 45.71 +22 09 29.0 19.6   704 – Lincoln Laboratory ETS, New Mexico MPS 61176
2001 11 12.31982 03 26 43.78 +22 09 31.1 19.9   704 – Lincoln Laboratory ETS, New Mexico MPS 61176
2001 11 12.33455 03 26 42.74 +22 09 32.1 20.0   704 – Lincoln Laboratory ETS, New Mexico MPS 61176
2001 11 12.34927 03 26 41.76 +22 09 34.3 20.0   704 – Lincoln Laboratory ETS, New Mexico MPS 61176
2001 11 19.16939 03 19 26.61 +22 13 12.4 19.0 R 699 – Lowell Observatory-LONEOS MPS 61176
2001 11 19.18654 03 19 25.50 +22 13 11.8   699 – Lowell Observatory-LONEOS MPS 61176
2001 11 19.20372 03 19 24.39 +22 13 12.7   699 – Lowell Observatory-LONEOS MPS 61176
2001 11 19.22093 03 19 23.33 +22 13 13.5   699 – Lowell Observatory-LONEOS MPS 61176
2001 11 19.28443 03 19 19.23 +22 13 14.6 19.2   704 – Lincoln Laboratory ETS, New Mexico MPS 61176
2001 11 19.29910 03 19 18.30 +22 13 14.4 19.3   704 – Lincoln Laboratory ETS, New Mexico MPS 61176
2001 11 19.31377 03 19 17.29 +22 13 14.5 19.6   704 – Lincoln Laboratory ETS, New Mexico MPS 61176
2001 11 19.32844 03 19 16.34 +22 13 15.2 19.6   704 – Lincoln Laboratory ETS, New Mexico MPS 61176
2001 11 24.23263 03 14 12.50 +22 14 16.6 19.9   704 – Lincoln Laboratory ETS, New Mexico MPS 61176
2001 11 24.24841 03 14 11.68 +22 14 19.4 19.9   704 – Lincoln Laboratory ETS, New Mexico MPS 61176
2001 11 24.26292 03 14 10.77 +22 14 17.6 19.9   704 – Lincoln Laboratory ETS, New Mexico MPS 61176
2001 11 24.27743 03 14 09.78 +22 14 17.9 20.1   704 – Lincoln Laboratory ETS, New Mexico MPS 61176
2001 12 10.21513 03 00 17.33 +22 14 00.7 20.0   704 – Lincoln Laboratory ETS, New Mexico MPS 61176
2001 12 10.23069 03 00 16.73 +22 14 00.9 20.6   704 – Lincoln Laboratory ETS, New Mexico MPS 61176
2001 12 10.24603 03 00 16.02 +22 14 00.9 20.4   704 – Lincoln Laboratory ETS, New Mexico MPS 61176
2001 12 10.26129 03 00 15.36 +22 14 00.3 20.2   704 – Lincoln Laboratory ETS, New Mexico MPS 61176
2004 04 01.33952 15 01 03.13 -14 44 56.2 20.8 V 291 – LPL/Spacewatch II MPS 133270
2004 04 01.36012 15 01 02.44 -14 44 57.2 20.7 V 291 – LPL/Spacewatch II MPS 133270
2004 04 01.37597 15 01 01.91 -14 44 58.0 20.6 V 291 – LPL/Spacewatch II MPS 133270
2004 04 23.29636 14 44 23.74 -14 48 06.7 18.9   704 – Lincoln Laboratory ETS, New Mexico MPS 133270
2004 04 23.31780 14 44 22.53 -14 48 05.9 19.3   704 – Lincoln Laboratory ETS, New Mexico MPS 133270
2004 04 23.32870 14 44 21.92 -14 48 06.5 19.4   704 – Lincoln Laboratory ETS, New Mexico MPS 133270
2004 04 23.34018 14 44 21.22 -14 48 06.3 19.6   704 – Lincoln Laboratory ETS, New Mexico MPS 133270
2004 05 15.24853 14 23 28.31 -14 37 10.3 19.6   704 – Lincoln Laboratory ETS, New Mexico MPS 133270
2004 05 15.25811 14 23 27.80 -14 37 10.1 19.5   704 – Lincoln Laboratory ETS, New Mexico MPS 133270
2004 05 15.27714 14 23 26.70 -14 37 07.9 19.8   704 – Lincoln Laboratory ETS, New Mexico MPS 133270
2005 07 28.37683 23 33 21.47 -22 08 36.6 19.4   644 – Palomar Mountain/NEAT MPS 138616
2005 07 28.37825 23 33 21.45 -22 08 37.0 19.2   644 – Palomar Mountain/NEAT MPS 138616
2005 07 28.39794 23 33 21.19 -22 08 42.9 18.9   644 – Palomar Mountain/NEAT MPS 138616
2005 07 28.39919 23 33 21.19 -22 08 43.4 19.0   644 – Palomar Mountain/NEAT MPS 138616
2005 07 28.42032 23 33 20.91 -22 08 49.9 18.9   644 – Palomar Mountain/NEAT MPS 138616
2005 07 28.42160 23 33 20.89 -22 08 50.2 18.8   644 – Palomar Mountain/NEAT MPS 138616
2005 08 10.68120 23 28 23.52 -23 18 50.5 18.9 V E12 – Siding Spring Survey MPS 139264
2005 08 10.69738 23 28 22.94 -23 18 54.7 19.4 V E12 – Siding Spring Survey MPS 139264
2005 08 10.71273 23 28 22.40 -23 18 59.5 19.2 V E12 – Siding Spring Survey MPS 139264
2005 08 10.72846 23 28 21.82 -23 19 05.6 19.9 V E12 – Siding Spring Survey MPS 139264
2005 08 28.65580 23 14 49.34 -24 43 19.9 19.1 V E12 – Siding Spring Survey MPS 140138
2005 08 28.66450 23 14 48.87 -24 43 21.7 18.5 V E12 – Siding Spring Survey MPS 140138
2005 08 28.67324 23 14 48.37 -24 43 23.9 18.3 V E12 – Siding Spring Survey MPS 140138
2005 08 28.68204 23 14 47.86 -24 43 25.3 19.1 V E12 – Siding Spring Survey MPS 140138
2005 09 02.32760 23 10 29.28 -24 58 08.5 18.7   644 – Palomar Mountain/NEAT MPS 141025
2005 09 02.34990 23 10 27.97 -24 58 12.1 18.6   644 – Palomar Mountain/NEAT MPS 141025
2005 09 02.38930 23 10 25.63 -24 58 18.3 18.9   644 – Palomar Mountain/NEAT MPS 141025
2005 10 08.17247 22 42 26.59 -24 03 10.3 18.9 R 699 – Lowell Observatory-LONEOS MPS 143707
2005 10 08.19069 22 42 26.06 -24 03 03.6   699 – Lowell Observatory-LONEOS MPS 143707
2005 10 08.20891 22 42 25.49 -24 02 59.1   699 – Lowell Observatory-LONEOS MPS 143707
2005 10 08.22715 22 42 25.09 -24 02 51.2   699 – Lowell Observatory-LONEOS MPS 143707
2005 10 10.17200 22 41 39.66 -23 51 30.7 19.8 V 703 – Catalina Sky Survey MPS 143707
2005 10 10.17944 22 41 39.51 -23 51 26.9 19.8 V 703 – Catalina Sky Survey MPS 143707
2005 10 10.18693 22 41 39.26 -23 51 25.4 19.1 V 703 – Catalina Sky Survey MPS 143707
2005 10 10.19439 22 41 39.08 -23 51 22.4 19.4 V 703 – Catalina Sky Survey MPS 143707
2008 03 03.32013 11 54 24.98 +16 11 25.7 20.4 V 703 – Catalina Sky Survey MPS 240625
2008 03 03.32611 11 54 24.73 +16 11 26.1 20.2 V 703 – Catalina Sky Survey MPS 240625
2008 03 03.33206 11 54 24.40 +16 11 28.4 19.2 V 703 – Catalina Sky Survey MPS 240625
2008 03 03.33804 11 54 23.97 +16 11 30.3 20.0 V 703 – Catalina Sky Survey MPS 240626
2008 03 06.43657 11 51 45.10 +16 25 13.3 19.9 V G96 – Mt. Lemmon Survey MPS 240626
2008 03 06.44278 11 51 44.78 +16 25 14.5 20.1 V G96 – Mt. Lemmon Survey MPS 240626
2008 03 06.44885 11 51 44.46 +16 25 16.4 19.9 V G96 – Mt. Lemmon Survey MPS 240626
2008 03 06.45493 11 51 44.13 +16 25 17.9 19.8 V G96 – Mt. Lemmon Survey MPS 240626
2008 03 11.27703 11 47 28.17 +16 44 50.0 20.0 V 703 – Catalina Sky Survey MPS 241991
2008 03 11.28294 11 47 27.85 +16 44 51.4 19.8 V 703 – Catalina Sky Survey MPS 241991
2008 03 11.28884 11 47 27.49 +16 44 53.0 19.9 V 703 – Catalina Sky Survey MPS 241991
2008 03 11.29472 11 47 27.20 +16 44 54.6 21.1 V 703 – Catalina Sky Survey MPS 241991
2008 03 14.22642 11 44 48.36 +16 55 23.1 20.2   704 – Lincoln Laboratory ETS, New Mexico MPS 243510
2008 03 14.23731 11 44 47.77 +16 55 25.3 20.4   704 – Lincoln Laboratory ETS, New Mexico MPS 243510
2008 03 14.24834 11 44 47.13 +16 55 28.1 20.2   704 – Lincoln Laboratory ETS, New Mexico MPS 243510
2010 07 20.790601 01 57 46.41 +03 16 28.9   C51 – WISE MPS 340664
2010 07 20.922904 01 57 53.70 +03 17 11.6   C51 – WISE MPS 340664
2010 07 21.055207 01 58 01.267 +03 17 54.71   C51 – WISE MPS 903742
2010 07 21.187512 01 58 08.62 +03 18 34.9   C51 – WISE MPS 340664
2010 07 21.386031 01 58 19.59 +03 19 38.9   C51 – WISE MPS 340664
2010 07 21.452119 01 58 23.27 +03 20 00.3   C51 – WISE MPS 340664
2010 07 21.518207 01 58 26.923 +03 20 21.70   C51 – WISE MPS 903742
2010 07 21.518334 01 58 27.062 +03 20 20.90   C51 – WISE MPS 903742
2010 07 21.782815 01 58 41.58 +03 21 45.4   C51 – WISE MPS 340664
2010 07 21.915118 01 58 48.790 +03 22 24.92   C51 – WISE MPS 903742
2010 07 22.047422 01 58 55.96 +03 23 09.1   C51 – WISE MPS 340664
2010 08 19.629653 02 17 33.284 +05 15 27.36 19.84 z F51 – Pan-STARRS 1, Haleakala MPS 366752
2010 08 19.636756 02 17 33.419 +05 15 28.31 19.93 z F51 – Pan-STARRS 1, Haleakala MPS 366752
2010 10 03.43566 02 06 17.78 +05 49 26.3 18.8 V 703 – Catalina Sky Survey MPS 350969
2010 10 03.44306 02 06 17.46 +05 49 26.0 18.3 V 703 – Catalina Sky Survey MPS 350969
2010 10 03.45056 02 06 17.02 +05 49 26.3 18.8 V 703 – Catalina Sky Survey MPS 350969
